TimeEST,TemperatureF,Dew PointF,Humidity,Sea Level PressureIn,VisibilityMPH,Wind Direction,Wind SpeedMPH,Gust SpeedMPH,PrecipitationIn,Events,Conditions,WindDirDegrees,DateUTC
12:42 AM,55.4,48.2,77,30.15,10.0,NW,6.9,-,0.00,,Overcast,310,2012-12-05 05:42:00
12:51 AM,55.0,50.0,83,30.09,10.0,NNW,8.1,-,0.00,,Overcast,330,2012-12-05 05:51:00
1:21 AM,53.6,51.8,94,30.15,8.0,NW,4.6,-,0.00,Rain,Light Rain,310,2012-12-05 06:21:00
1:34 AM,53.6,51.8,94,30.15,7.0,NNW,18.4,24.2,0.01,Rain,Light Rain,330,2012-12-05 06:34:00
1:51 AM,50.0,48.0,93,30.13,6.0,North,10.4,-,0.02,Rain,Light Rain,350,2012-12-05 06:51:00
2:51 AM,46.9,44.1,90,30.15,7.0,North,11.5,-,0.01,Rain,Light Rain,360,2012-12-05 07:51:00
3:51 AM,43.0,39.9,89,30.18,10.0,North,6.9,-,0.01,Rain,Light Rain,350,2012-12-05 08:51:00
4:24 AM,41.0,37.4,87,30.19,10.0,North,10.4,-,0.00,Rain,Light Rain,360,2012-12-05 09:24:00
4:51 AM,41.0,37.9,89,30.19,10.0,NNW,9.2,-,0.02,Rain,Light Rain,330,2012-12-05 09:51:00
5:07 AM,39.2,37.4,93,30.20,9.0,NNW,6.9,-,0.01,Rain,Light Rain,340,2012-12-05 10:07:00
5:51 AM,39.9,37.9,93,30.20,10.0,WNW,4.6,-,0.02,Rain,Light Rain,300,2012-12-05 10:51:00
6:51 AM,39.9,37.9,93,30.22,10.0,NW,4.6,-,0.00,,Overcast,310,2012-12-05 11:51:00
7:51 AM,39.9,37.0,89,30.25,10.0,WNW,3.5,-,N/A,,Overcast,300,2012-12-05 12:51:00
9:51 AM,42.1,37.0,82,30.27,10.0,NW,8.1,-,N/A,,Clear,320,2012-12-05 14:51:00
10:51 AM,44.6,37.4,76,30.27,10.0,North,4.6,-,N/A,,Scattered Clouds,10,2012-12-05 15:51:00
11:14 AM,44.6,37.4,76,30.27,10.0,North,9.2,-,N/A,,Mostly Cloudy,360,2012-12-05 16:14:00
11:33 AM,44.6,37.4,76,30.27,10.0,North,9.2,-,N/A,,Scattered Clouds,350,2012-12-05 16:33:00
11:51 AM,45.0,36.0,71,30.25,10.0,North,8.1,-,N/A,,Clear,350,2012-12-05 16:51:00
12:51 PM,48.0,36.0,63,30.24,10.0,North,6.9,-,N/A,,Clear,350,2012-12-05 17:51:00
1:51 PM,50.0,34.0,54,30.23,10.0,North,8.1,-,N/A,,Clear,350,2012-12-05 18:51:00
2:51 PM,50.0,30.0,46,30.22,10.0,NNW,10.4,-,N/A,,Clear,330,2012-12-05 19:51:00
3:51 PM,48.9,28.9,46,30.24,10.0,NNW,8.1,-,N/A,,Clear,340,2012-12-05 20:51:00
4:51 PM,45.0,30.0,56,30.26,10.0,NNW,8.1,-,N/A,,Clear,340,2012-12-05 21:51:00
5:51 PM,42.1,32.0,67,30.29,10.0,NNW,6.9,-,N/A,,Clear,340,2012-12-05 22:51:00
6:51 PM,39.9,32.0,73,30.30,10.0,NNW,3.5,-,N/A,,Clear,340,2012-12-05 23:51:00
7:51 PM,39.0,32.0,76,30.30,10.0,Calm,Calm,-,N/A,,Mostly Cloudy,0,2012-12-06 00:51:00
8:31 PM,35.6,30.2,81,30.25,10.0,Calm,Calm,-,N/A,,Scattered Clouds,0,2012-12-06 01:31:00
8:51 PM,35.1,30.0,82,30.31,10.0,SSW,3.5,-,N/A,,Clear,210,2012-12-06 01:51:00
9:51 PM,37.9,32.0,79,30.28,6.0,North,4.6,-,N/A,,Haze,10,2012-12-06 02:51:00
10:51 PM,34.0,30.0,85,30.29,10.0,Calm,Calm,-,N/A,,Clear,0,2012-12-06 03:51:00
11:51 PM,33.1,30.0,89,30.28,10.0,Calm,Calm,-,N/A,,Clear,0,2012-12-06 04:51:00